Hourly Weather Bojsi

Today, 17 June, Thursday

Time Temperature Precipitation Wind Pressure Humidity
00:00 +17°C° 0 mm 2 mps 689 mmHg 34%
01:00 +17°C° 0 mm 2 mps 689 mmHg 35%
02:00 +16°C° 0 mm 1 mps 689 mmHg 35%
03:00 +16°C° 0 mm 1 mps 689 mmHg 36%
04:00 +16°C° 0 mm 1 mps 689 mmHg 36%
05:00 +18°C° 0 mm 2 mps 689 mmHg 33%
06:00 +20°C° 0 mm 2 mps 690 mmHg 30%
07:00 +24°C° 0 mm 2 mps 690 mmHg 27%
08:00 +25°C° 0 mm 2 mps 690 mmHg 25%
09:00 +27°C° 0 mm 3 mps 690 mmHg 23%
10:00 +29°C° 0 mm 3 mps 690 mmHg 21%
11:00 +30°C° 0 mm 3 mps 690 mmHg 19%
12:00 +33°C° 0 mm 3 mps 689 mmHg 18%
13:00 +34°C° 0 mm 3 mps 689 mmHg 16%
14:00 +34°C° 0 mm 4 mps 689 mmHg 16%
15:00 +34°C° 0 mm 4 mps 688 mmHg 16%
16:00 +34°C° 0 mm 4 mps 688 mmHg 16%
17:00 +31°C° 0 mm 3 mps 687 mmHg 20%
18:00 +29°C° 0 mm 3 mps 687 mmHg 24%
19:00 +26°C° 0 mm 2 mps 686 mmHg 28%
20:00 +25°C° 0 mm 2 mps 687 mmHg 28%
21:00 +24°C° 0 mm 2 mps 687 mmHg 28%
22:00 +23°C° 0 mm 2 mps 687 mmHg 29%
23:00 +21°C° 0 mm 2 mps 687 mmHg 30%

Tomorrow, 18 June, Friday

Time Temperature Precipitation Wind Pressure Humidity
00:00 +21°C° 0 mm 2 mps 687 mmHg 31%
01:00 +20°C° 0 mm 2 mps 686 mmHg 31%
02:00 +19°C° 0 mm 2 mps 686 mmHg 32%
03:00 +19°C° 0 mm 2 mps 686 mmHg 32%
04:00 +19°C° 0 mm 2 mps 686 mmHg 33%
05:00 +21°C° 0 mm 1 mps 687 mmHg 31%
06:00 +23°C° 0 mm 1 mps 687 mmHg 28%
07:00 +23°C° 0 mm 0 mps 687 mmHg 26%
08:00 +27°C° 0 mm 1 mps 687 mmHg 24%
09:00 +30°C° 0 mm 1 mps 687 mmHg 21%
10:00 +32°C° 0 mm 1 mps 687 mmHg 18%
11:00 +33°C° 0 mm 1 mps 687 mmHg 17%
12:00 +35°C° 0 mm 2 mps 687 mmHg 16%
13:00 +36°C° 0 mm 2 mps 686 mmHg 14%
14:00 +37°C° 0 mm 2 mps 686 mmHg 14%
15:00 +37°C° 0 mm 2 mps 685 mmHg 13%
16:00 +38°C° 0 mm 2 mps 685 mmHg 13%
17:00 +35°C° 0 mm 2 mps 684 mmHg 17%
18:00 +32°C° 0 mm 2 mps 684 mmHg 20%
19:00 +30°C° 0 mm 1 mps 683 mmHg 24%
20:00 +29°C° 0 mm 1 mps 683 mmHg 24%
21:00 +27°C° 0 mm 2 mps 683 mmHg 25%
22:00 +26°C° 0 mm 2 mps 683 mmHg 25%
23:00 +25°C° 0 mm 2 mps 683 mmHg 28%

Day after tomorrow, 19 June, Saturday

Time Temperature Precipitation Wind Pressure Humidity
00:00 +24°C° 0 mm 2 mps 684 mmHg 31%
01:00 +21°C° 0 mm 2 mps 684 mmHg 33%
02:00 +21°C° 0 mm 2 mps 684 mmHg 34%
03:00 +20°C° 0 mm 2 mps 684 mmHg 35%
04:00 +20°C° 0 mm 2 mps 683 mmHg 36%
05:00 +23°C° 0 mm 2 mps 684 mmHg 34%
06:00 +24°C° 0 mm 2 mps 685 mmHg 32%
07:00 +26°C° 0 mm 3 mps 685 mmHg 30%
08:00 +28°C° 0 mm 3 mps 686 mmHg 28%
09:00 +30°C° 0 mm 4 mps 686 mmHg 26%
10:00 +33°C° 0 mm 5 mps 686 mmHg 23%
11:00 +34°C° 0 mm 5 mps 686 mmHg 21%
12:00 +35°C° 0 mm 6 mps 686 mmHg 19%
13:00 +35°C° 0 mm 6 mps 685 mmHg 17%
14:00 +35°C° 0 mm 6 mps 685 mmHg 17%
15:00 +35°C° 0 mm 5 mps 685 mmHg 16%
16:00 +35°C° 0 mm 5 mps 684 mmHg 16%
17:00 +33°C° 0 mm 4 mps 684 mmHg 19%
18:00 +30°C° 0 mm 4 mps 684 mmHg 23%
19:00 +28°C° 0 mm 3 mps 683 mmHg 27%
20:00 +26°C° 0 mm 3 mps 683 mmHg 31%
21:00 +25°C° 0 mm 2 mps 683 mmHg 34%
22:00 +23°C° 0 mm 2 mps 683 mmHg 38%
23:00 +21°C° 0 mm 2 mps 683 mmHg 39%

20 June, Sunday

Time Temperature Precipitation Wind Pressure Humidity
00:00 +20°C° 0 mm 2 mps 683 mmHg 40%
01:00 +19°C° 0 mm 2 mps 683 mmHg 42%
02:00 +19°C° 0 mm 2 mps 683 mmHg 43%
03:00 +19°C° 0 mm 1 mps 683 mmHg 45%
04:00 +19°C° 0 mm 1 mps 684 mmHg 47%
05:00 +21°C° 0 mm 1 mps 684 mmHg 42%
06:00 +23°C° 0 mm 2 mps 685 mmHg 38%
07:00 +25°C° 0 mm 2 mps 685 mmHg 34%
08:00 +27°C° 0 mm 3 mps 685 mmHg 31%
09:00 +29°C° 0 mm 4 mps 685 mmHg 28%
10:00 +30°C° 0 mm 5 mps 686 mmHg 24%
11:00 +32°C° 0 mm 5 mps 686 mmHg 23%
12:00 +33°C° 0 mm 6 mps 686 mmHg 22%
13:00 +34°C° 0 mm 7 mps 685 mmHg 21%
14:00 +34°C° 0 mm 7 mps 685 mmHg 20%
15:00 +34°C° 0 mm 7 mps 685 mmHg 20%
16:00 +34°C° 0 mm 7 mps 685 mmHg 20%
17:00 +33°C° 0 mm 5 mps 685 mmHg 24%
18:00 +30°C° 0 mm 4 mps 684 mmHg 28%
19:00 +28°C° 0 mm 3 mps 684 mmHg 32%
20:00 +26°C° 0 mm 3 mps 684 mmHg 35%
21:00 +25°C° 0 mm 3 mps 684 mmHg 39%
22:00 +23°C° 0 mm 2 mps 684 mmHg 42%
23:00 +21°C° 0 mm 2 mps 685 mmHg 45%

21 June, Monday

Time Temperature Precipitation Wind Pressure Humidity
00:00 +20°C° 0 mm 2 mps 685 mmHg 47%
01:00 +20°C° 0 mm 2 mps 686 mmHg 50%
02:00 +19°C° 0 mm 2 mps 686 mmHg 51%
03:00 +19°C° 0 mm 2 mps 686 mmHg 51%
04:00 +19°C° 0 mm 3 mps 686 mmHg 51%
05:00 +20°C° 0 mm 3 mps 687 mmHg 47%
06:00 +22°C° 0 mm 3 mps 687 mmHg 42%
07:00 +25°C° 0 mm 3 mps 688 mmHg 38%
08:00 +27°C° 0 mm 4 mps 688 mmHg 34%
09:00 +28°C° 0 mm 4 mps 688 mmHg 30%
10:00 +30°C° 0 mm 5 mps 688 mmHg 26%
11:00 +33°C° 0 mm 4 mps 687 mmHg 23%
12:00 +34°C° 0 mm 3 mps 687 mmHg 20%
13:00 +35°C° 0 mm 2 mps 686 mmHg 17%
14:00 +35°C° 0 mm 2 mps 686 mmHg 17%
15:00 +36°C° 0 mm 2 mps 685 mmHg 16%
16:00 +36°C° 0 mm 2 mps 685 mmHg 15%
17:00 +33°C° 0 mm 1 mps 684 mmHg 19%
18:00 +31°C° 0 mm 1 mps 684 mmHg 23%
19:00 +29°C° 0 mm 1 mps 683 mmHg 26%
20:00 +28°C° 0 mm 1 mps 683 mmHg 26%
21:00 +27°C° 0 mm 2 mps 683 mmHg 26%
22:00 +26°C° 0 mm 2 mps 683 mmHg 26%
23:00 +25°C° 0 mm 2 mps 683 mmHg 27%

22 June, Tuesday

Time Temperature Precipitation Wind Pressure Humidity
00:00 +25°C° 0 mm 2 mps 682 mmHg 28%
01:00 +24°C° 0 mm 2 mps 682 mmHg 29%
02:00 +23°C° 0 mm 2 mps 682 mmHg 30%
03:00 +23°C° 0 mm 2 mps 682 mmHg 31%
04:00 +21°C° 0 mm 2 mps 682 mmHg 32%
05:00 +25°C° 0 mm 1 mps 682 mmHg 29%
06:00 +27°C° 0 mm 1 mps 683 mmHg 26%
07:00 +29°C° 0 mm 1 mps 683 mmHg 24%
08:00 +31°C° 0 mm 1 mps 683 mmHg 21%
09:00 +34°C° 0 mm 2 mps 683 mmHg 19%
10:00 +36°C° 0 mm 2 mps 683 mmHg 17%
11:00 +37°C° 0 mm 2 mps 683 mmHg 16%
12:00 +38°C° 0 mm 3 mps 682 mmHg 15%
13:00 +39°C° 0 mm 3 mps 682 mmHg 14%
14:00 +39°C° 0 mm 3 mps 681 mmHg 14%
15:00 +41°C° 0 mm 4 mps 681 mmHg 14%
16:00 +41°C° 0 mm 4 mps 680 mmHg 13%
17:00 +38°C° 0 mm 6 mps 680 mmHg 22%
18:00 +33°C° 0 mm 7 mps 680 mmHg 30%
19:00 +28°C° 0 mm 8 mps 680 mmHg 39%
20:00 +27°C° 0 mm 7 mps 680 mmHg 42%
21:00 +26°C° 0 mm 5 mps 680 mmHg 45%
22:00 +23°C° 0 mm 4 mps 681 mmHg 48%
23:00 +22°C° 0 mm 3 mps 681 mmHg 53%
Show more

We Need Your Consent

Meteoprog and our Service Providers may store and access personal data such as cookies, device identifiers or other similar technologies on your device and process such data to personalise content and ads, as well as provide social media features and to analyse the traffic.

  • Store and/or access information on your device

    Cookies, device identifiers or other information can be stored or accessed on your device for the purposes indicated above.

  • Personalised ads and content, ad and content measurement, audience insights, and products development

    Ads and content can be personalised based on a profile. More data can be added to better personalise ads and content. Ad and content performance can be measured. Insights about the audience who saw the ads and content can be derived. Such data can be used to develop or improve user’s experience, systems and software.

By clicking ‘I Agree’ you will allow the use of indicated cookies, device identifiers, web beacons or other similar technologies. Your settings can be changed in the browser on your device.

For certain purposes, legitimate interests may be relied on, rather than consent. You can read more about this in our Privacy and Cookie Policy.